Dallas/Ft Worth, TX

2:39 AM CST on November 18, 2019 (GMT -0600)
Dallas-Fort Worth International

Weather History for KDFW - September, 2019

Change the Weather History Date:

Tuesday, September 10, 2019

  Actual Average Record
Temperature  
Mean Temperature 86 °F 80 °F  
Max Temperature 96 °F 90 °F 101 °F (2014)
Min Temperature 75 °F 70 °F 56 °F (1941)
Degree Days  
Heating Degree Days 0 0  
Month to date heating degree days 0 0  
Since 1 July heating degree days 0 0  
Cooling Degree Days 20 15  
Month to date cooling degree days 215 165  
Year to date cooling degree days 2417 2347  
Growing Degree Days 36 (Base 50)    
Moisture  
Dew Point 67 °F    
Average Humidity 58    
Maximum Humidity 82    
Minimum Humidity 36    
Precipitation  
Precipitation 0.00 in 0.10 in 3.90 in (2007)
Month to date precipitation 0.00 0.95  
Year to date precipitation 27.13 25.06  
Sea Level Pressure  
Sea Level Pressure 30.00 in    
Wind  
Wind Speed 12 mph ()    
Max Wind Speed 24 mph    
Max Gust Speed 31 mph    
Visibility 10.0 miles    
Events      
T = Trace of Precipitation, MM = Missing Value Source: Averaged Metar Reports

Daily Weather History Graph

Daily Weather History Graph

Search for Another Location

Airport or City:

Astronomy

Sep. 10, 2019 Rise Set
Actual Time 7:08 AM CDT 7:41 PM CDT
Civil Twilight 6:43 AM CDT 8:06 PM CDT
Nautical Twilight 6:14 AM CDT 8:35 PM CDT
Astronomical Twilight 5:44 AM CDT 9:05 PM CDT
Moon 6:06 PM CDT (9/10) 3:49 AM CDT (9/10)
Length of Visible Light 13h 22m
Length of Day
12h 32m
Waxing Gibbous, 89% of the Moon is Illuminated
Sep 10
Waxing Gibbous
Sep 13
Full
Sep 21
Last Quarter
Sep 28
New
Oct 5
First Quarter

Hourly Weather History & Observations

Time (CDT) Temp. Heat Index Dew Point Humidity Pressure Visibility Wind Dir Wind Speed Gust Speed Precip Events Conditions
12:53 AM 81.0 °F 83.0 °F 66.0 °F 60% 29.97 in 10.0 mi SSE 11.5 mph - N/A   Clear
1:53 AM 80.1 °F 82.3 °F 66.9 °F 64% 29.97 in 10.0 mi SSE 12.7 mph - N/A   Partly Cloudy
2:53 AM 78.1 °F - 66.9 °F 68% 29.98 in 10.0 mi SSE 11.5 mph - N/A   Scattered Clouds
3:53 AM 77.0 °F - 68.0 °F 74% 29.98 in 10.0 mi South 12.7 mph - N/A   Scattered Clouds
4:53 AM 75.9 °F - 66.9 °F 74% 29.99 in 10.0 mi SSE 10.4 mph - N/A   Mostly Cloudy
5:53 AM 75.0 °F - 66.9 °F 76% 30.00 in 10.0 mi SSE 9.2 mph - N/A   Mostly Cloudy
6:53 AM 75.0 °F - 68.0 °F 79% 30.01 in 10.0 mi SSE 8.1 mph - N/A   Scattered Clouds
7:53 AM 75.9 °F - 69.1 °F 79% 30.04 in 10.0 mi South 10.4 mph - N/A   Partly Cloudy
8:53 AM 80.1 °F 83.6 °F 71.1 °F 74% 30.05 in 10.0 mi South 11.5 mph - N/A   Partly Cloudy
9:53 AM 82.9 °F 87.5 °F 71.1 °F 67% 30.06 in 10.0 mi SSE 15.0 mph - N/A   Scattered Clouds
10:53 AM 86.0 °F 90.7 °F 70.0 °F 59% 30.06 in 10.0 mi South 13.8 mph - N/A   Scattered Clouds
11:53 AM 89.1 °F 92.9 °F 68.0 °F 50% 30.05 in 10.0 mi SSW 17.3 mph - N/A   Scattered Clouds
12:53 PM 91.9 °F 95.4 °F 66.9 °F 44% 30.03 in 10.0 mi South 16.1 mph - N/A   Scattered Clouds
1:53 PM 93.0 °F 95.0 °F 64.9 °F 39% 30.02 in 10.0 mi South 17.3 mph 29.9 mph N/A   Scattered Clouds
2:53 PM 95.0 °F 97.4 °F 64.9 °F 37% 29.99 in 10.0 mi South 15.0 mph 20.7 mph N/A   Mostly Cloudy
3:53 PM 95.0 °F 97.0 °F 64.0 °F 36% 29.96 in 10.0 mi SE 17.3 mph - N/A   Mostly Cloudy
4:53 PM 93.9 °F 97.0 °F 66.0 °F 40% 29.96 in 10.0 mi SE 13.8 mph 23.0 mph N/A   Scattered Clouds
5:53 PM 91.9 °F 94.5 °F 66.0 °F 42% 29.96 in 10.0 mi ESE 18.4 mph 24.2 mph N/A   Partly Cloudy
6:53 PM 91.0 °F 93.0 °F 64.9 °F 42% 29.96 in 10.0 mi ESE 17.3 mph 23.0 mph N/A   Partly Cloudy
7:53 PM 89.1 °F 90.0 °F 63.0 °F 42% 29.97 in 10.0 mi SE 15.0 mph - N/A   Partly Cloudy
8:53 PM 86.0 °F 90.1 °F 69.1 °F 57% 30.00 in 10.0 mi SSE 21.9 mph 29.9 mph N/A   Scattered Clouds
9:53 PM 82.9 °F 85.0 °F 66.0 °F 56% 30.03 in 10.0 mi South 15.0 mph - N/A   Partly Cloudy
10:53 PM 81.0 °F 83.0 °F 66.0 °F 60% 30.03 in 10.0 mi South 11.5 mph - N/A   Clear
11:53 PM 78.1 °F - 66.0 °F 66% 30.03 in 10.0 mi South 8.1 mph - N/A   Partly Cloudy